Eastsound, WA
on Saturday, January 5, 2013

Saturday
Previous Day Next Day
Daily Summary
 ActualAverage (KBLI)Record (KBLI)
Temperature
Mean Temperature °F 38°F  
Max Temperature 48°F 44°F 61°F (2006)
Min Temperature 39°F 32°F 2°F (1982)
Degree Days
Heating Degree Days 22 27  
Month to date heating degree days 135  
Cooling Degree Days 0 0  
Month to date cooling degree days 0  
Year to date cooling degree days 0  
Moisture
Dew Point 39°F   
Average Humidity 87    
Maximum Humidity 100    
Minimum Humidity 66    
Precipitation
Precipitation 0.02 in 0.15 in 1.06 in (2006)
Month to date precipitation 0.71  
Year to date precipitation 0.71  
Wind
Wind Speed 4 mph   
Max Wind Speed 17 mph   
Max Gust Speed 29 mph   
Visibility 9 miles   
Events Rain   

Key: T is trace of precipitation, MM is missing value
Source: NWS Daily Summary
Time(PST)TemperatureDew PointHumidity Pressure Visibility Wind DirectionWind SpeedGust SpeedPrecipitationEvents Conditions
12:15 AM 39.2°F 37.4°F 93% 30.16 in 10.0 miles East 4.6 mph - N/A   Clear
12:35 AM 39.2°F 37.4°F 93% 30.16 in 10.0 miles Calm Calm - N/A   Clear
12:55 AM 39.2°F 37.4°F 93% 30.16 in 10.0 miles Calm Calm - N/A   Clear
1:15 AM 39.2°F 37.4°F 93% 30.15 in 10.0 miles Calm Calm - N/A   Clear
1:35 AM 39.2°F 37.4°F 93% 30.14 in 10.0 miles East 5.8 mph - N/A   Clear
2:15 AM 39.2°F 37.4°F 93% 30.16 in 10.0 miles Calm Calm - N/A   Clear
2:35 AM 39.2°F 37.4°F 93% 30.16 in 10.0 miles Calm Calm - N/A   Clear
2:55 AM 39.2°F 39.2°F 100% 30.16 in 10.0 miles Calm Calm - N/A   Clear
3:15 AM 39.2°F 39.2°F 100% 30.17 in 10.0 miles Calm Calm - N/A   Clear
3:35 AM 39.2°F 39.2°F 100% 30.17 in 9.0 miles Calm Calm - N/A Rain Light Rain
3:55 AM 39.2°F 39.2°F 100% 30.16 in 7.0 miles Calm Calm - N/A Rain Light Rain
4:15 AM 39.2°F 39.2°F 100% 30.16 in 5.0 miles Calm Calm - N/A Rain Light Rain
4:35 AM 39.2°F 39.2°F 100% 30.16 in 8.0 miles Calm Calm - N/A Rain Light Rain
4:55 AM 39.2°F 39.2°F 100% 30.16 in 7.0 miles Calm Calm - N/A Rain Rain
5:15 AM 39.2°F 39.2°F 100% 30.16 in 8.0 miles Calm Calm - N/A Rain Light Rain
5:35 AM 39.2°F 39.2°F 100% 30.16 in 7.0 miles Calm Calm - N/A Rain Light Rain
6:15 AM 39.2°F 37.4°F 93% 30.17 in 7.0 miles Calm Calm - N/A Rain Light Rain
6:35 AM 39.2°F 37.4°F 93% 30.17 in 8.0 miles North - - N/A Rain Light Rain
7:15 AM 39.2°F 37.4°F 93% 30.17 in 7.0 miles East 4.6 mph - N/A Rain Light Rain
7:35 AM 39.2°F 37.4°F 93% 30.16 in 7.0 miles East 5.8 mph - N/A Rain Light Rain
7:55 AM 39.2°F 37.4°F 93% 30.16 in 5.0 miles ENE 5.8 mph - 0.01 in Rain Rain
8:15 AM 39.2°F 37.4°F 93% 30.16 in 5.0 miles ENE 3.5 mph - N/A Rain Light Rain
8:35 AM 39.2°F 37.4°F 93% 30.16 in 6.0 miles East 5.8 mph - N/A Rain Light Rain
8:55 AM 39.2°F 39.2°F 100% 30.17 in 7.0 miles East 4.6 mph - N/A Rain Light Rain
9:15 AM 39.2°F 39.2°F 100% 30.16 in 4.0 miles ENE 8.1 mph - 0.01 in Rain Rain
9:35 AM 39.2°F 39.2°F 100% 30.15 in 3.0 miles East 6.9 mph - 0.01 in Rain Light Rain
9:55 AM 41.0°F 39.2°F 93% 30.14 in 5.0 miles Calm Calm - 0.01 in Rain Light Rain
10:15 AM 41.0°F 41.0°F 100% 30.12 in 4.0 miles ESE 5.8 mph - N/A Rain Light Rain
10:35 AM 42.8°F 41.0°F 93% 30.14 in 10.0 miles Calm Calm - N/A   Partly Cloudy
10:55 AM 44.6°F 41.0°F 87% 30.11 in 10.0 miles North 5.8 mph - N/A   Clear
11:15 AM 44.6°F 39.2°F 81% 30.11 in 10.0 miles Calm Calm - N/A   Clear
11:35 AM 46.4°F 41.0°F 81% 30.12 in 10.0 miles NNW 9.2 mph - N/A   Clear
11:55 AM 44.6°F 39.2°F 81% 30.12 in 10.0 miles North 5.8 mph - N/A   Partly Cloudy
12:15 PM 44.6°F 41.0°F 87% 30.12 in 10.0 miles North 3.5 mph - N/A   Mostly Cloudy
12:35 PM 44.6°F 39.2°F 81% 30.11 in 10.0 miles NE 4.6 mph - N/A   Partly Cloudy
12:55 PM 44.6°F 39.2°F 81% 30.09 in 10.0 miles SE 4.6 mph - N/A   Clear
1:15 PM 46.4°F 39.2°F 76% 30.09 in 10.0 miles Calm Calm - N/A   Clear
1:35 PM 46.4°F 39.2°F 76% 30.08 in 10.0 miles SW 5.8 mph - N/A   Clear
1:55 PM 44.6°F 39.2°F 81% 30.07 in 10.0 miles SSE 3.5 mph - N/A   Clear
2:15 PM 46.4°F 39.2°F 76% 30.06 in 10.0 miles South 8.1 mph 17.3 mph N/A   Clear
2:35 PM 46.4°F 39.2°F 76% 30.06 in 10.0 miles South 13.8 mph 24.2 mph N/A   Clear
3:15 PM 46.4°F 39.2°F 76% 30.05 in 10.0 miles South 13.8 mph 23.0 mph N/A   Clear
3:35 PM 46.4°F 39.2°F 76% 30.04 in 10.0 miles South 13.8 mph 25.3 mph N/A   Partly Cloudy
3:55 PM 46.4°F 39.2°F 76% 30.04 in 10.0 miles South 15.0 mph 28.8 mph N/A   Partly Cloudy
4:15 PM 46.4°F 39.2°F 76% 30.04 in 10.0 miles South 15.0 mph 21.9 mph N/A   Mostly Cloudy
4:35 PM 46.4°F 39.2°F 76% 30.03 in 10.0 miles SSW 17.3 mph 26.5 mph N/A   Overcast
4:55 PM 46.4°F 37.4°F 71% 30.03 in 10.0 miles South 13.8 mph 23.0 mph N/A   Mostly Cloudy
5:15 PM 48.2°F 37.4°F 66% 30.03 in 10.0 miles South 15.0 mph 24.2 mph N/A   Mostly Cloudy
5:35 PM 48.2°F 37.4°F 66% 30.03 in 10.0 miles South 15.0 mph 23.0 mph N/A   Mostly Cloudy
5:55 PM 48.2°F 37.4°F 66% 30.03 in 10.0 miles South 15.0 mph 24.2 mph N/A   Mostly Cloudy
6:15 PM 46.4°F 37.4°F 71% 30.03 in 10.0 miles South 15.0 mph 21.9 mph N/A   Overcast
6:55 PM 46.4°F 39.2°F 76% 30.05 in 10.0 miles SSW 10.4 mph - N/A   Mostly Cloudy
7:15 PM 46.4°F 37.4°F 71% 30.06 in 10.0 miles SSW 12.7 mph 17.3 mph N/A   Mostly Cloudy
7:35 PM 44.6°F 39.2°F 81% 30.06 in 10.0 miles South 6.9 mph - N/A   Partly Cloudy
7:55 PM 44.6°F 39.2°F 81% 30.06 in 10.0 miles South 9.2 mph - N/A   Clear
8:15 PM 44.6°F 39.2°F 81% 30.06 in 10.0 miles South 4.6 mph - N/A Rain Light Rain
8:35 PM 44.6°F 39.2°F 81% 30.06 in 10.0 miles South 3.5 mph - N/A   Clear
9:15 PM 44.6°F 41.0°F 87% 30.06 in 10.0 miles SSW 8.1 mph - N/A Rain Light Rain
9:35 PM 42.8°F 41.0°F 93% 30.06 in 10.0 miles SSW 8.1 mph - N/A   Scattered Clouds
9:55 PM 42.8°F 41.0°F 93% 30.07 in 10.0 miles SSW 8.1 mph - N/A   Overcast
10:15 PM 42.8°F 41.0°F 93% 30.08 in 10.0 miles SSW 6.9 mph - N/A   Overcast
10:35 PM 44.6°F 41.0°F 87% 30.08 in 10.0 miles South 5.8 mph - N/A   Overcast
10:55 PM 42.8°F 41.0°F 93% 30.08 in 10.0 miles South 6.9 mph - N/A   Mostly Cloudy
11:15 PM 41.0°F 39.2°F 93% 30.08 in 10.0 miles SSW 6.9 mph - N/A   Partly Cloudy
11:35 PM 41.0°F 39.2°F 93% 30.08 in 10.0 miles South 3.5 mph - N/A   Clear
11:55 PM 41.0°F 37.4°F 87% 30.08 in 10.0 miles South 3.5 mph - N/A   Clear
Moon Phase
Jan. 05 Jan. 11 Jan. 18 Jan. 26 Feb. 03
Sunrise:08:03 AM (PST) Moon Rise:12:59 AM (PST)1/5
Sunset:04:30 PM (PST) Moon Set:11:38 AM (PST)1/5

Copyright © 2014 The Weather Underground, Inc.